| time (UTC) | temp C | wind direction | speed KPH | gust KPH | rain 1hr cm | rain 24hr cm | rain mn cm | humidity % | barometer mb |
| 20260505011747 | 10 | 292 | 0.0 | 0.0 | 0.00 | 0.00 | 0.00 | 92 | 1010.0 |
| 20260505010742 | 10 | 292 | 0.0 | 0.0 | 0.00 | 0.00 | 0.00 | 91 | 1009.9 |
| 20260505005735 | 10 | 292 | 0.0 | 3.2 | 0.00 | 0.00 | 0.00 | 91 | 1010.0 |
| 20260505004728 | 10 | 292 | 1.6 | 3.2 | 0.00 | 0.00 | 0.00 | 91 | 1009.7 |
| 20260505003726 | 10 | 315 | 3.2 | 6.4 | 0.00 | 0.00 | 0.00 | 90 | 1010.0 |
| 20260505002716 | 11 | 270 | 3.2 | 6.4 | 0.00 | 0.00 | 0.00 | 89 | 1009.9 |
| 20260505001709 | 11 | 247 | 3.2 | 9.7 | 0.00 | 0.00 | 0.00 | 88 | 1010.0 |
| 20260505000704 | 11 | 270 | 3.2 | 9.7 | 0.00 | 0.00 | 0.00 | 88 | 1009.9 |
| 20260504235657 | 11 | 247 | 4.8 | 14.5 | 0.00 | 0.00 | 0.00 | 88 | 1010.0 |
| 20260504234653 | 11 | 270 | 8.0 | 12.9 | 0.00 | 0.00 | 0.00 | 88 | 1009.9 |
| 20260504233645 | 12 | 180 | 4.8 | 11.3 | 0.00 | 0.00 | 0.00 | 86 | 1009.8 |
| 20260504232638 | 12 | 225 | 3.2 | 6.4 | 0.00 | 0.00 | 0.00 | 85 | 1009.7 |
| 20260504231634 | 12 | 247 | 3.2 | 9.7 | 0.00 | 0.00 | 0.00 | 83 | 1009.6 |
| 20260504230626 | 13 | 247 | 4.8 | 11.3 | 0.00 | 0.00 | 0.00 | 81 | 1009.5 |
| 20260504225623 | 13 | 247 | 3.2 | 12.9 | 0.00 | 0.00 | 0.00 | 81 | 1009.4 |
| 20260504224614 | 13 | 292 | 6.4 | 11.3 | 0.00 | 0.00 | 0.00 | 80 | 1009.7 |
| 20260504223607 | 13 | 247 | 4.8 | 6.4 | 0.00 | 0.00 | 0.00 | 80 | 1009.5 |
| 20260504222602 | 13 | 292 | 3.2 | 6.4 | 0.00 | 0.00 | 0.00 | 80 | 1009.5 |
| 20260504221555 | 13 | 292 | 3.2 | 6.4 | 0.00 | 0.00 | 0.00 | 79 | 1009.7 |
| 20260504220553 | 13 | 270 | 4.8 | 6.4 | 0.00 | 0.00 | 0.00 | 78 | 1009.5 |
| 20260504215542 | 14 | 292 | 3.2 | 6.4 | 0.00 | 0.00 | 0.00 | 77 | 1009.6 |
| 20260504214537 | 14 | 292 | 3.2 | 6.4 | 0.00 | 0.00 | 0.00 | 76 | 1009.4 |
| 20260504213530 | 15 | 292 | 3.2 | 6.4 | 0.00 | 0.00 | 0.00 | 75 | 1009.3 |
| 20260504212524 | 15 | 292 | 3.2 | 6.4 | 0.00 | 0.00 | 0.00 | 75 | 1009.5 |
| 20260504211521 | 15 | 292 | 3.2 | 9.7 | 0.00 | 0.00 | 0.00 | 74 | 1009.5 |
| 20260504210511 | 15 | 270 | 6.4 | 11.3 | 0.00 | 0.00 | 0.00 | 74 | 1009.5 |
| 20260504205506 | 15 | 292 | 6.4 | 11.3 | 0.00 | 0.00 | 0.00 | 73 | 1009.5 |
| 20260504204459 | 15 | 270 | 3.2 | 9.7 | 0.00 | 0.00 | 0.00 | 74 | 1009.7 |
| 20260504203455 | 15 | 270 | 6.4 | 12.9 | 0.00 | 0.00 | 0.00 | 75 | 1009.8 |
| 20260504202449 | 15 | 247 | 4.8 | 9.7 | 0.00 | 0.00 | 0.00 | 76 | 1009.5 |
| 20260504201441 | 15 | 270 | 3.2 | 6.4 | 0.00 | 0.00 | 0.00 | 76 | 1009.5 |
| 20260504200435 | 15 | 315 | 3.2 | 6.4 | 0.00 | 0.00 | 0.00 | 75 | 1009.5 |
| 20260504195429 | 15 | 270 | 3.2 | 6.4 | 0.00 | 0.00 | 0.00 | 74 | 1009.5 |
| 20260504194422 | 16 | 225 | 0.0 | 9.7 | 0.00 | 0.00 | 0.00 | 75 | 1009.1 |
| 20260504193419 | 16 | 270 | 3.2 | 6.4 | 0.00 | 0.00 | 0.00 | 76 | 1009.6 |
| 20260504192410 | 16 | 292 | 1.6 | 6.4 | 0.00 | 0.00 | 0.00 | 77 | 1009.6 |
| 20260504191403 | 16 | 270 | 3.2 | 6.4 | 0.00 | 0.00 | 0.00 | 76 | 1009.6 |
| 20260504190358 | 16 | 270 | 0.0 | 6.4 | 0.00 | 0.00 | 0.00 | 76 | 1009.8 |
| 20260504185351 | 16 | 270 | 4.8 | 6.4 | 0.00 | 0.00 | 0.00 | 75 | 1009.9 |
| 20260504184348 | 16 | 270 | 1.6 | 6.4 | 0.00 | 0.00 | 0.00 | 76 | 1009.5 |
| 20260504183339 | 16 | 270 | 0.0 | 3.2 | 0.00 | 0.00 | 0.00 | 76 | 1008.9 |
| 20260504182333 | 17 | 202 | 0.0 | 6.4 | 0.00 | 0.00 | 0.00 | 74 | 1009.3 |
| 20260504181326 | 17 | 202 | 0.0 | 6.4 | 0.00 | 0.00 | 0.00 | 75 | 1009.0 |
| 20260504180320 | 17 | 180 | 3.2 | 9.7 | 0.00 | 0.00 | 0.00 | 73 | 1008.9 |
| 20260504175316 | 17 | 225 | 4.8 | 11.3 | 0.00 | 0.00 | 0.00 | 71 | 1009.1 |
| 20260504174308 | 17 | 202 | 6.4 | 12.9 | 0.00 | 0.00 | 0.00 | 71 | 1008.6 |
| 20260504173302 | 17 | 157 | 6.4 | 14.5 | 0.00 | 0.00 | 0.00 | 70 | 1008.9 |
| 20260504172256 | 18 | 247 | 4.8 | 17.7 | 0.00 | 0.00 | 0.00 | 69 | 1008.5 |
| 20260504171249 | 18 | 202 | 8.0 | 17.7 | 0.00 | 0.00 | 0.00 | 68 | 1008.4 |
| 20260504170248 | 19 | 247 | 8.0 | 17.7 | 0.00 | 0.00 | 0.00 | 66 | 1008.4 |
| 20260504160207 | 21 | 270 | 6.4 | 14.5 | 0.00 | 0.00 | 0.00 | 58 | 1007.8 |
| 20260504151135 | 22 | 157 | 6.4 | 20.9 | 0.00 | 0.00 | 0.00 | 55 | 1007.7 |
| 20260504150129 | 23 | 247 | 9.7 | 22.5 | 0.00 | 0.00 | 0.00 | 53 | 1007.5 |
| 20260504141057 | 23 | 225 | 6.4 | 14.5 | 0.00 | 0.00 | 0.00 | 51 | 1007.3 |
| 20260504081721 | 25 | 337 | 17.7 | 29.0 | 0.00 | 0.00 | 0.00 | 38 | 1008.6 |
| 20260504080715 | 24 | 270 | 11.3 | 25.7 | 0.00 | 0.00 | 0.00 | 37 | 1008.4 |
| 20260504050523 | 17 | 0 | 3.2 | 11.3 | 0.00 | 0.00 | 0.00 | 53 | 1009.0 |
| 20260504045516 | 16 | 45 | 1.6 | 6.4 | 0.00 | 0.00 | 0.00 | 54 | 1009.2 |
| 20260504044511 | 15 | 247 | 1.6 | 6.4 | 0.00 | 0.00 | 0.00 | 55 | 1009.1 |
| 20260504043504 | 15 | 157 | 0.0 | 0.0 | 0.00 | 0.00 | 0.00 | 63 | 1009.3 |
| 20260504042502 | 14 | 202 | 0.0 | 0.0 | 0.00 | 0.00 | 0.00 | 67 | 1009.2 |
| 20260504041452 | 13 | 180 | 0.0 | 0.0 | 0.00 | 0.00 | 0.00 | 66 | 1009.3 |
| 20260504040446 | 12 | 67 | 0.0 | 0.0 | 0.00 | 0.00 | 0.00 | 74 | 1009.4 |
| 20260504035441 | 11 | 67 | 0.0 | 0.0 | 0.00 | 0.00 | 0.00 | 77 | 1009.4 |
| 20260504034434 | 10 | 67 | 0.0 | 0.0 | 0.00 | 0.00 | 0.00 | 79 | 1009.3 |
| 20260504033431 | 9 | 67 | 0.0 | 0.0 | 0.00 | 0.00 | 0.00 | 80 | 1009.2 |
| 20260504032421 | 9 | 67 | 0.0 | 0.0 | 0.00 | 0.00 | 0.00 | 82 | 1009.3 |
| 20260504031415 | 8 | 67 | 0.0 | 0.0 | 0.00 | 0.00 | 0.00 | 80 | 1009.3 |
| 20260504030408 | 7 | 67 | 0.0 | 0.0 | 0.00 | 0.00 | 0.00 | 82 | 1009.4 |
| 20260504025403 | 7 | 337 | 0.0 | 0.0 | 0.00 | 0.00 | 0.00 | 83 | 1009.1 |
| 20260504024359 | 7 | 315 | 0.0 | 0.0 | 0.00 | 0.00 | 0.00 | 85 | 1009.2 |
| 20260504023350 | 7 | 247 | 0.0 | 0.0 | 0.00 | 0.00 | 0.00 | 85 | 1009.2 |
| 20260504022344 | 7 | 337 | 0.0 | 0.0 | 0.00 | 0.00 | 0.00 | 85 | 1009.2 |
| 20260504021338 | 7 | 315 | 0.0 | 0.0 | 0.00 | 0.00 | 0.00 | 86 | 1009.3 |
| 20260504020331 | 7 | 315 | 0.0 | 0.0 | 0.00 | 0.00 | 0.00 | 86 | 1009.3 |
| 20260504015328 | 7 | 292 | 0.0 | 0.0 | 0.00 | 0.00 | 0.00 | 87 | 1009.3 |
| 20260504014320 | 7 | 315 | 0.0 | 0.0 | 0.00 | 0.00 | 0.00 | 87 | 1009.3 |
| 20260504013313 | 7 | 337 | 0.0 | 0.0 | 0.00 | 0.00 | 0.00 | 87 | 1009.6 |
| 20260504012306 | 7 | 315 | 0.0 | 0.0 | 0.00 | 0.00 | 0.00 | 85 | 1009.5 |